Flag for Norway Weather past 2 weeks in Lillestrøm, Norway

Now
39 °F

Chilly.


Feels Like: 35 °F
Forecast: 25 / 36 °F
Wind: 5 mph from Southwest

Location: Oslo-Blindern

Current Time: Mar 2, 2015 at 6:26:20 PM

Latest Report: Mar 2, 2015 at 5:00 PM


Visibility: N/A

Pressure: 29.21 "Hg

Humidity: 85%

Dew point: 35 °F

Location of LillestrømLocation

Historic Weather in Lillestrøm — Graph

°F

Lillestrøm temperature yesterday

Maximum temperature yesterday: 39 °F (at 8:00 PM)
Minimum temperature yesterday: 33 °F (at 10:00 AM)
Average temperature yesterday: 35 °F

Past Weeks' High & Low Weather Summary

 TemperatureHumidityPressure
High44 °F (Feb 20, 1:00 PM)99% (Feb 22, 3:00 AM)30.51 "Hg (Feb 22, 3:00 AM)
Low27 °F (Feb 22, 8:00 AM)37% (Feb 22, 4:00 PM)28.97 "Hg (Feb 23, 2:00 PM)
Average36 °F88%29.61 "Hg
* Reported Feb 15 5:00 PM — Mar 2 5:00 PM, Lillestrøm, Weather by CustomWeather, © 2015

Note: Actual official high and low records may vary slightly from our data, if they occured in-between our weather recording intervals... More about our weather records

Advertising

Lillestrøm weather history for previous 24 hours

 ConditionsComfort  
Time TempWeatherWind HumidityBarometerVisibility
5:00 PM
Mon, Mar 2
39 °FChilly.5 mph85%29.21 "HgN/A
4:00 PM40 °FOvercast.3 mph78%29.18 "Hg19 mi
3:00 PM41 °FQuite cool.5 mph77%29.15 "HgN/A
2:00 PM41 °FQuite cool.6 mph73%29.15 "HgN/A
1:00 PM41 °FOvercast.5 mph76%29.12 "Hg25 mi
12:00 PM43 °FQuite cool.5 mph68%29.12 "HgN/A
11:00 AM40 °FQuite cool.5 mph80%29.12 "HgN/A
10:00 AM38 °FLow clouds.5 mph82%29.12 "Hg31 mi
9:00 AM37 °FChilly.3 mph88%29.09 "HgN/A
8:00 AM37 °FChilly.6 mph88%29.09 "HgN/A
7:00 AM37 °FLow clouds.3 mph90%29.06 "Hg25 mi
6:00 AM37 °FChilly.3 mph91%29.06 "HgN/A
5:00 AM38 °FChilly.2 mph91%29.06 "HgN/A
4:00 AM38 °FOvercast.5 mph93%29.03 "Hg12 mi
3:00 AM38 °FChilly.3 mph92%29.03 "HgN/A
2:00 AM38 °FChilly.3 mph91%29.03 "HgN/A
1:00 AM38 °FLow clouds.3 mph92%29.03 "Hg12 mi
12:00 AM38 °FChilly.5 mph93%29.03 "HgN/A
11:00 PM
Sun, Mar 1
38 °FChilly.3 mph93%29.00 "HgN/A
10:00 PM38 °FLight rain. Low clouds.3 mph95%29.00 "Hg9 mi
9:00 PM38 °FChilly.6 mph95%28.97 "HgN/A
8:00 PM39 °FChilly.5 mph96%28.97 "HgN/A
7:00 PM38 °FLight rain. Low clouds.5 mph96%29.00 "Hg6 mi
6:00 PM38 °FChilly.5 mph96%29.00 "HgN/A
Weather by CustomWeather, © 2015

See weather overviewHow to use our weather pages